[[{"header":{"parameterUnit":"m.s-1","parameterCategory":1,"la1":30.2991,"la2":30.254,"lo1":-89.0895,"lo2":-89.0444,"dy":0.0017,"dx":0.0017,"nx":28,"ny":28,"refTime":"2023-09-02T21:00:00:Z","depth":0,"parameterNumber":2,"parameterNumberName":"U-component_of_WINDS"},"data":[0,0,0,0,0,0,0,0,0,0,0,0,0,0,0,0,0,0,0,0,0,0,0,0,0,0,0,0,0,0,0,0,0,0,0,0,0,0,0,0,0,0,0,0,0,0,0,0,0,0,0,0,0,0,0,0,0,0,-5.0868,-5.0869,0,-5.0956,-5.0957,-5.0958,-5.0884,-5.0881,-5.0878,-5.0875,-5.0968,-5.0974,-5.0979,0,0,0,0,0,0,0,0,0,0,0,0,0,-5.0641,-5.0645,-5.0867,-5.0869,-5.087,-5.0956,-5.0957,-5.0958,-5.0885,-5.0881,-5.0877,-5.0873,-5.0967,-5.0973,-5.0979,0,0,0,0,0,0,0,0,0,0,0,0,0,-5.0735,-5.0647,-5.0867,-5.0843,-5.0842,-5.0955,-5.0957,-5.0958,-5.0885,-5.0881,-5.0876,-5.0872,-5.0965,-5.0972,-5.098,-5.1123,0,0,-5.1005,-5.1008,0,0,0,0,0,0,0,0,-5.073,-5.0744,-5.0846,-5.0845,-5.0844,-5.0904,-5.0911,-5.1014,-5.0886,-5.0869,-5.0875,-5.0869,-5.0951,-5.096,-5.0987,-5.1127,-5.1131,-5.1006,-5.1011,-5.1014,-5.1016,0,0,0,0,0,0,0,-5.0724,-5.074,-5.0902,-5.0847,-5.0846,-5.083,-5.0838,-5.093,-5.0935,-5.087,-5.0865,-5.0876,-5.095,-5.0979,-5.0988,-5.1133,-5.1005,-5.1013,-5.1018,-5.1021,-5.1397,-5.1402,0,0,0,0,0,0,-5.0719,-5.0735,-5.09,-5.0905,-5.0774,-5.0838,-5.0847,-5.089,-5.0934,-5.0936,-5.088,-5.0873,-5.0968,-5.0979,-5.0991,-5.1161,-5.1014,-5.1022,-5.1026,-5.1392,-5.1398,-5.1404,0,0,0,0,0,0,-5.0714,-5.0734,-5.0896,-5.0819,-5.0838,-5.0847,-5.0895,-5.0894,-5.0923,-5.0941,-5.0942,-5.0909,-5.0964,-5.098,-5.1091,-5.1164,-5.1025,-5.1033,-5.1386,-5.1394,-5.1401,-5.1503,0,0,0,0,0,0,-5.0708,-5.0733,-5.0786,-5.082,-5.0842,-5.0993,-5.0899,-5.0899,-5.0937,-5.0927,-5.0969,-5.0971,-5.0962,-5.1079,-5.1099,-5.1172,-5.1039,-5.1379,-5.1389,-5.1399,-5.1493,-5.1513,-5.153,0,0,0,0,0,-5.07,-5.0811,-5.0789,-5.0809,-5.0908,-5.0997,-5.101,-5.0996,-5.0943,-5.0997,-5.1009,-5.097,-5.1153,-5.1091,-5.1113,-5.119,-5.1375,-5.1387,-5.1398,-5.1484,-5.1509,-5.153,0,0,0,0,0,0,-5.0785,-5.0815,-5.079,-5.0915,-5.0954,-5.0984,-5.1051,-5.1022,-5.1078,-5.1067,-5.1049,-5.1059,-5.1176,-5.1194,-5.1125,-5.1331,-5.1256,-5.1272,-5.1314,-5.1338,-5.1356,-5.1348,-5.1045,0,0,0,0,0,-5.0818,-5.0887,-5.091,-5.1018,-5.1039,-5.1042,-5.1081,-5.1067,-5.1107,-5.1123,-5.1143,-5.1185,-5.1252,-5.1296,-5.1359,-5.1497,-5.1505,-5.156,-5.1579,-5.1594,-5.1608,-5.1684,-5.1709,-5.1442,-5.1442,-5.1442,0,0,-5.0887,-5.0912,-5.0956,-5.1036,-5.1064,-5.1137,-5.1056,-5.1136,-5.119,-5.1135,-5.1241,-5.1258,-5.1303,-5.1429,-5.1485,-5.1447,-5.1684,-5.1609,-5.1621,-5.1627,-5.1698,-5.1723,-5.1746,-5.145,-5.1448,-5.1447,0,0,-5.105,-5.1076,-5.1169,-5.12,-5.1244,-5.1246,-5.1269,-5.1305,-5.1314,-5.1419,-5.138,-5.1446,-5.1562,-5.1596,-5.1628,-5.1809,-5.1775,-5.183,-5.1927,-5.2001,-5.2022,-5.204,-5.2104,-5.2128,-5.1845,-5.1845,-5.1845,0,-5.113,-5.1236,-5.1221,-5.1304,-5.1341,-5.1295,-5.1391,-5.1422,-5.1485,-5.1512,-5.147,-5.1615,-5.1643,-5.1776,-5.182,-5.1848,-5.1875,-5.1824,-5.202,-5.2038,-5.2055,-5.2116,-5.2141,-5.1851,-5.185,-5.185,-5.1849,0,-5.1333,-5.1409,-5.1479,-5.154,-5.1586,-5.1675,-5.1674,-5.1723,-5.1707,-5.1715,-5.1825,-5.1856,-5.1925,-5.1957,-5.1942,-5.2089,-5.2064,-5.2022,-5.1945,-5.2087,-5.2144,-5.2168,-5.186,-5.1858,-5.1856,-5.1854,0,0,-5.1548,-5.1602,-5.1628,-5.1656,-5.1704,-5.1762,-5.1851,-5.1918,-5.196,-5.2007,-5.2081,-5.2182,-5.2143,-5.2181,-5.217,-5.2235,-5.2377,-5.2185,-5.2185,-5.2218,-5.2542,-5.2572,-5.2599,-5.2356,-5.2361,-5.2364,-5.2538,0,-5.1712,-5.1863,-5.1854,-5.1998,-5.2067,-5.2028,-5.2105,-5.2144,-5.2155,-5.2217,-5.223,-5.2302,-5.2245,-5.2268,-5.2331,-5.2346,-5.2441,-5.2334,-5.2426,-5.2429,-5.2413,-5.2629,-5.2661,-5.2822,-5.256,-5.2564,-5.2566,0,-5.1921,-5.1975,-5.2126,-5.2165,-5.2194,-5.2263,-5.2325,-5.2385,-5.243,-5.2433,-5.2477,-5.2457,-5.2549,-5.2473,-5.26,-5.2527,-5.2565,-5.2579,-5.2585,-5.2591,-5.2504,-5.264,-5.2874,-5.2897,-5.2602,-5.2599,-5.2596,0,-5.2062,-5.2172,-5.2276,-5.2302,-5.235,-5.2401,-5.2423,-5.2463,-5.2505,-5.2561,-5.2588,-5.2654,-5.269,-5.2743,-5.2742,-5.2686,-5.2872,-5.2795,-5.2877,-5.2878,-5.2915,-5.2913,-5.3157,-5.2944,-5.2943,-5.2943,-5.2943,0,-5.2244,-5.2337,-5.234,-5.2404,-5.2509,-5.2499,-5.2604,-5.2621,-5.2658,-5.2727,-5.2698,-5.2763,-5.2759,-5.2826,-5.2827,-5.2932,-5.2949,-5.2956,-5.2954,-5.2957,-5.2956,-5.2979,-5.2967,-5.2949,-5.2948,-5.2947,-5.2946,0,-5.2416,-5.2422,-5.2533,-5.2571,-5.2583,-5.2658,-5.2691,-5.2753,-5.2763,-5.2851,-5.2871,-5.2887,-5.2964,-5.2969,-5.3059,-5.306,-5.3188,-5.3176,-5.3172,-5.3169,-5.3251,-5.3243,-5.3518,-5.3554,-5.3319,-5.3321,-5.3323,0,-5.2531,-5.2602,-5.2648,-5.2691,-5.2717,-5.2787,-5.283,-5.2825,-5.2871,-5.293,-5.2985,-5.306,-5.3119,-5.3246,-5.3266,-5.3336,-5.3324,-5.3416,-5.3334,-5.3335,-5.3324,-5.3318,-5.3326,-5.343,-5.3433,-5.3435,-5.3437,0,-5.2734,-5.2734,-5.2795,-5.286,-5.2912,-5.2963,-5.301,-5.3048,-5.3049,-5.3103,-5.3181,-5.3228,-5.332,-5.3395,-5.3464,-5.349,-5.3464,-5.3463,-5.3486,-5.3488,-5.3482,-5.3485,-5.3214,-5.3456,-5.3454,-5.3452,-5.3451,-5.3451,-5.288,-5.2941,-5.2984,-5.3055,-5.309,-5.3136,-5.3196,-5.3214,-5.328,-5.3353,-5.3348,-5.3435,-5.3482,-5.3571,-5.3603,-5.3673,-5.3641,-5.3674,-5.3682,-5.369,-5.3698,-5.3474,-5.3685,-5.3685,-5.3684,-5.3684,-5.3684,0,-5.308,-5.3106,-5.3171,-5.3238,-5.3295,-5.3267,-5.3319,-5.3369,-5.3446,-5.3491,-5.355,-5.3642,-5.3716,-5.3744,-5.3816,-5.3867,-5.3857,-5.3886,-5.3881,-5.3888,-5.3722,-5.3694,-5.3893,-5.3893,-5.3893,-5.3893,-5.3893,-5.3893,-5.319,-5.3293,-5.3299,-5.3421,-5.3447,-5.3531,-5.3564,-5.3607,-5.3642,-5.3746,-5.3807,-5.3825,-5.3864,-5.394,-5.4007,-5.4014,-5.4041,-5.4075,-5.4076,-5.392,-5.3899,-5.3879,-5.3853,-5.4081,-5.4082,-5.4236,-5.4237,-5.4238]},{"header":{"parameterUnit":"m.s-1","parameterCategory":1,"la1":30.2991,"la2":30.254,"lo1":-89.0895,"lo2":-89.0444,"dy":0.0017,"dx":0.0017,"nx":28,"ny":28,"refTime":"2023-09-02T21:00:00:Z","depth":0,"parameterNumber":3,"parameterNumberName":"V-component_of_WINDS"},"data":[0,0,0,0,0,0,0,0,0,0,0,0,0,0,0,0,0,0,0,0,0,0,0,0,0,0,0,0,0,0,0,0,0,0,0,0,0,0,0,0,0,0,0,0,0,0,0,0,0,0,0,0,0,0,0,0,0,0,2.4962,2.4963,0,2.504,2.5041,2.5042,2.512,2.5121,2.5122,2.5123,2.5196,2.5197,2.5198,0,0,0,0,0,0,0,0,0,0,0,0,0,2.4874,2.4876,2.4962,2.4963,2.4964,2.504,2.5041,2.5042,2.512,2.5121,2.5122,2.5124,2.5196,2.5197,2.5198,0,0,0,0,0,0,0,0,0,0,0,0,0,2.4928,2.4876,2.4961,2.5012,2.5017,2.504,2.5041,2.5042,2.5119,2.5121,2.5123,2.5124,2.5196,2.5197,2.5199,2.5176,0,0,2.5203,2.5204,0,0,0,0,0,0,0,0,2.4925,2.4931,2.5003,2.5008,2.5014,2.5072,2.5037,2.5087,2.5119,2.508,2.5123,2.5125,2.5153,2.5158,2.5169,2.5179,2.5182,2.5203,2.5204,2.5205,2.5205,0,0,0,0,0,0,0,2.4921,2.4928,2.4992,2.5004,2.5011,2.5029,2.5038,2.5047,2.5107,2.5084,2.509,2.5098,2.5157,2.5168,2.5172,2.5183,2.5203,2.5204,2.5205,2.5206,2.5179,2.5177,0,0,0,0,0,0,2.4911,2.4925,2.499,2.4995,2.4973,2.5029,2.504,2.5052,2.5107,2.5117,2.5097,2.5102,2.5164,2.517,2.5174,2.5151,2.5205,2.5206,2.5207,2.518,2.5179,2.5177,0,0,0,0,0,0,2.4908,2.4916,2.4987,2.4962,2.4972,2.5029,2.5042,2.5052,2.5064,2.5117,2.5127,2.5098,2.5166,2.5172,2.5175,2.5155,2.5207,2.5208,2.5182,2.518,2.5178,2.5104,0,0,0,0,0,0,2.4906,2.4915,2.4907,2.4961,2.4973,2.4988,2.5041,2.5053,2.5067,2.5074,2.512,2.5129,2.5168,2.5173,2.5177,2.5158,2.5209,2.5184,2.5181,2.5178,2.5109,2.51,2.5092,0,0,0,0,0,2.4902,2.4882,2.4907,2.4914,2.4966,2.4986,2.4993,2.5039,2.5065,2.5057,2.5092,2.5128,2.5157,2.5173,2.5178,2.5159,2.5186,2.5182,2.5179,2.5113,2.5102,2.5092,0,0,0,0,0,0,2.4821,2.489,2.4918,2.4915,2.4944,2.5,2.4991,2.5026,2.5047,2.5053,2.5108,2.5117,2.5114,2.5137,2.5153,2.514,2.5176,2.5174,2.5124,2.5114,2.5106,2.51,2.521,0,0,0,0,0,2.4804,2.4817,2.4875,2.4867,2.4881,2.4933,2.4944,2.4978,2.501,2.5022,2.5056,2.5084,2.51,2.5109,2.5126,2.5114,2.5124,2.5103,2.5095,2.5088,2.5084,2.5078,2.507,2.5165,2.5165,2.5165,0,0,2.4766,2.4805,2.481,2.4852,2.4879,2.4889,2.4943,2.4952,2.496,2.5023,2.5028,2.5054,2.5089,2.5084,2.5084,2.5103,2.506,2.5083,2.5077,2.5077,2.5074,2.5065,2.5057,2.5163,2.5163,2.5163,0,0,2.4703,2.4735,2.4732,2.4758,2.48,2.4836,2.4835,2.4885,2.4906,2.4913,2.4961,2.497,2.4996,2.5019,2.5034,2.4982,2.5016,2.4986,2.4941,2.4936,2.4928,2.4922,2.4902,2.4895,2.4983,2.4983,2.4983,0,2.4651,2.4671,2.4725,2.4731,2.4748,2.4809,2.4805,2.4827,2.4871,2.488,2.4903,2.4937,2.4965,2.4966,2.4954,2.4965,2.4964,2.498,2.4926,2.492,2.4914,2.4896,2.4889,2.4979,2.4979,2.498,2.498,0,2.4604,2.4617,2.4609,2.4653,2.4669,2.467,2.4722,2.4732,2.4765,2.4797,2.4803,2.484,2.4865,2.4869,2.4899,2.4874,2.4885,2.4916,2.4953,2.49,2.4884,2.4878,2.4973,2.4975,2.4976,2.4977,0,0,2.4489,2.4565,2.4561,2.4582,2.4633,2.4644,2.4647,2.4676,2.4682,2.4711,2.4714,2.4736,2.4765,2.4782,2.4816,2.4812,2.4768,2.4843,2.4845,2.4826,2.4741,2.4716,2.4708,2.4792,2.479,2.479,2.4738,0,2.4434,2.4446,2.4496,2.4493,2.4505,2.4564,2.4568,2.4599,2.463,2.4644,2.4678,2.4692,2.473,2.4741,2.4739,2.4773,2.4751,2.4778,2.4793,2.4793,2.4781,2.47,2.4673,2.4622,2.4732,2.4731,2.473,0,2.437,2.4398,2.4396,2.4449,2.4456,2.4458,2.4488,2.4502,2.4538,2.4561,2.4581,2.4621,2.4627,2.4664,2.4672,2.4689,2.4699,2.4717,2.4716,2.4717,2.4757,2.4697,2.4607,2.4599,2.4721,2.4722,2.4722,0,2.4285,2.4322,2.4326,2.4343,2.4404,2.4404,2.4429,2.4468,2.4482,2.4508,2.4517,2.4542,2.4555,2.4573,2.4618,2.4641,2.4621,2.4661,2.4638,2.4637,2.4629,2.4628,2.4538,2.4638,2.4638,2.4638,2.4638,0,2.4217,2.4213,2.4289,2.4291,2.429,2.4347,2.4342,2.4373,2.4407,2.4415,2.4468,2.4473,2.4534,2.4546,2.4581,2.4582,2.4588,2.4605,2.4614,2.4599,2.4597,2.4604,2.4608,2.4636,2.4637,2.4637,2.4637,0,2.412,2.4171,2.418,2.4239,2.4254,2.4249,2.4299,2.4302,2.4338,2.4348,2.4353,2.4409,2.4426,2.4474,2.4503,2.4527,2.4517,2.4535,2.4505,2.451,2.4484,2.4485,2.4394,2.4384,2.4491,2.449,2.4489,0,2.4072,2.4071,2.4131,2.4142,2.4166,2.4182,2.4198,2.4254,2.4267,2.431,2.4308,2.4331,2.4352,2.4377,2.4418,2.4441,2.4458,2.4425,2.4462,2.4447,2.4456,2.4455,2.4455,2.4416,2.4414,2.4413,2.4412,0,2.3981,2.4007,2.4029,2.406,2.4077,2.4104,2.4132,2.4137,2.4201,2.4213,2.4234,2.425,2.4281,2.4302,2.4332,2.4356,2.4393,2.4401,2.4397,2.438,2.4363,2.4371,2.4481,2.4402,2.4403,2.4404,2.4404,2.4405,2.3907,2.3909,2.3952,2.3975,2.4003,2.4029,2.4036,2.4075,2.4093,2.4125,2.4157,2.4173,2.421,2.4255,2.4276,2.4289,2.4308,2.4302,2.43,2.4297,2.429,2.4363,2.4294,2.4295,2.4295,2.4295,2.4296,0,2.3817,2.3849,2.3869,2.391,2.3927,2.3965,2.4,2.4011,2.4026,2.4058,2.4079,2.4102,2.4123,2.4168,2.4192,2.4194,2.4212,2.4198,2.4197,2.4202,2.4272,2.4273,2.4183,2.4183,2.4183,2.4183,2.4183,2.4183,2.3773,2.3779,2.381,2.3831,2.3862,2.3881,2.3897,2.3921,2.3948,2.3972,2.3991,2.4022,2.4058,2.4087,2.4107,2.412,2.4126,2.4106,2.4123,2.4187,2.4197,2.4207,2.4208,2.4107,2.4107,2.4053,2.4053,2.4052]}]]